Miscellaneous Local Product
Issued by NWS North Platte, NE

Home | Current Version | Previous Version | Text Only | Print | Product List | Glossary On
Versions: 1 2 3 4 5 6 7 8 9 10 11 12 13 14 15 16 17 18 19 20 21 22 23 24 25 26 27 28 29 30 31 32 33 34 35 36 37 38 39 40 41 42 43 44 45 46 47 48 49 50
000
AXUS43 KLBF 270210
MISLBF


WESTERN AND NORTH CENTRAL NEBRASKA HOURLY WEATHER ROUNDUP
NATIONAL WEATHER SERVICE NORTH PLATTE NE
800 PM CST FRI DEC 26 2014

***STATIONS NOT REPORTING VARIABLES SUCH AS SKY/WEATHER OR
PRESSURE ARE PROVIDED BY THE NEBRASKA DEPARTMENT OF
ROADS...RAWS...AND APRS NETWORKS...AND ARE NOT UNDER
NATIONAL WEATHER SERVICE QUALITY CONTROL***

...OBSERVATIONS IN AND NEAR THE EASTERN PANHANDLE OF NEBRASKA...

CITY           SKY/WX    TMP DP  RH WIND       PRES   REMARKS
PINE RIDGE     CLOUDY    18  11  74 N5        30.11R WCI  11
CHADRON        CLOUDY    19  14  81 CALM      30.12R
ALLIANCE       CLOUDY    17  14  88 N7        30.06S WCI   8
SIDNEY         LGT SNOW  16  13  88 NW5       30.05R FOG     WCI   9
WHITECLAY        N/A     17  12  80 N7          N/A  WCI   7
CRESCENT LAKE    N/A     16  12  84 N9          N/A  WCI   5
LISCO            N/A     22  14  71 W6          N/A  WCI  14
BIG SPRINGS      N/A     19  17  91 N3          N/A
$$

...OBSERVATIONS IN NORTH CENTRAL NEBRASKA...

CITY           SKY/WX    TMP DP  RH WIND       PRES   REMARKS
VALENTINE      LGT SNOW  19  15  84 N12       30.11S FOG     WCI   7
THEDFORD       LGT SNOW  20  18  90 N9G16     30.08R WCI  10
AINSWORTH      LGT SNOW  19  17  92 N12       30.09S WCI   6
O`NEILL        LGT SNOW  21  20  96 N15       30.09R WCI   8
ORD            LGT SNOW  21  18  88 N10       30.06F FOG     WCI  10
BROKEN BOW     LGT SNOW  21  17  84 N13       30.06R FOG     WCI   9
BROWNLEE         N/A     17  14  88 NW14        N/A  WCI   3
SPRINGVIEW       N/A     19  17  90 NW3         N/A
BREWSTER         N/A     22  21  93 N9          N/A  WCI  12
ROSE             N/A     26  25  97 N7          N/A  WCI  18
SARGENT          N/A     20  18  91 N3G12       N/A
COMSTOCK         N/A     27  26  94 N7          N/A  WCI  20
CHAMBERS         N/A     21  18  89 NE6         N/A  WCI  13
EWING            N/A     22  20  93 CALM        N/A
$$

...OBSERVATIONS IN SOUTHWEST NEBRASKA AND FAR NORTHEAST COLORADO...

CITY           SKY/WX    TMP DP  RH WIND       PRES   REMARKS
WRAY           LGT SNOW  19  17  89 NW9       30.08R WCI   9
HOLYOKE        LGT SNOW  21  19  93 N8        30.08R WCI  12
IMPERIAL       LGT SNOW  20  15  81 N13       30.09R WCI   7
OGALLALA       LGT SNOW  20  17  91 N9        30.09R WCI   9
NORTH PLATTE   LGT SNOW  20  15  81 N9        30.09R WCI   9
MCCOOK         LGT SNOW  23  20  88 NE9       30.10R VSB 1   WCI  13
LEXINGTON      CLOUDY    23  19  86 N10       30.07R WCI  12
PAXTON           N/A     21  19  93 NW3         N/A
BRADY            N/A     19  15  84 CALM        N/A
GOTHENBURG       N/A     20  15  82 NW8         N/A  WCI  10
CALLAWAY         N/A     18  16  93 N12         N/A  WCI   6
$$

...NORTH PLATTE AREA...

CITY           SKY/WX    TMP DP  RH WIND       PRES   REMARKS
AIRPORT        LGT SNOW  20  15  81 N9        30.09R WCI   9
$$

...SOME WEATHER OBSERVATIONS FROM AROUND THE REGION...

CITY           SKY/WX    TMP DP  RH WIND       PRES   REMARKS
DENVER         LGT SNOW  13  11  92 N5        30.02R FOG     WCI   5
LARAMIE        LGT SNOW   7   4  87 N6        29.91R FOG     WCI  -3
CHEYENNE       CLOUDY    12   7  80 NW6       29.96R HAZE    WCI   3
SCOTTSBLUFF    CLOUDY    17  15  92 NW6       30.08R FOG     WCI   9
RAPID CITY     CLOUDY    18  14  84 CALM      30.12R
PIERRE         PTCLDY    15  10  80 NE8       30.17S WCI   4
WINNER         LGT SNOW  20  15  81 N16       30.15S WCI   6
SIOUX FALLS    LGT SNOW  23  20  88 N12       30.08F FOG     WCI  12
OMAHA          FRZ DRZL  32  31  96 N9        30.01F FOG     WCI  24
GRAND ISLAND   LGT SNOW  22  20  92 N12       30.06R FOG     WCI  10
KANSAS CITY    DRIZZLE   38  34  85 NW6       29.98R WCI  33
WICHITA        CLOUDY    35  30  82 NW13      30.05R WCI  26
HAYS           CLOUDY    27  18  69 N12       30.07R WCI  16
LIBERAL        CLOUDY    27  19  74 NW8       30.11R WCI  18
GOODLAND       CLOUDY    18  16  92 N8        30.07R WCI   8
$$



USA.gov is the U.S. government's official web portal to all federal, state and local government web resources and services.